STARLINK-30254 (57533 NORAD) Tracking and Keplerian Element Data

This shows tracking and keplerian element data for the satellite.

Feedback or suggestion? Click here.




ElementValue
Catalog57533
NameSTARLINK-30254
Epoch Orbit396
Epoch Day238.91667824
Epoch Year2023
RAAN1.0602
Inclination42.9995
Eccentricity0.0001116
Argument of Perigee276.3988
Mean Anonmoly122.4595
Mean Motion15.5576662
Decay Rate-0.01692534
L11 57533U 23115N 23238.91667824 -.01692534 00000+0 -26693-1 0 9994
L22 57533 42.9995 1.0602 0001116 276.3988 122.4595 15.55766620 3963



Live tracking and technical data element details for STARLINK-30254 (NORAD 57533). STARLINK-30254 can be tracked NOW for your location showing map with azimuth and elevation plus other details from your city location.







IsCatalogInMostPopularTable: catalog: 57533, numindb: 5
Update: records affected: 1



GetName: 57533 STARLINK-30254

Hit Count: updated at: Tue, 26 Sep 2023 13:23:15 GMT